| time (UTC) | temp F | wind direction | speed knots | gust knots | rain 1hr in | rain 24hr in | rain mn in | humidity % | barometer mb |
| 20260510175007 | 80 | 38 | 4.3 | 9.6 | 0.00 | 0.00 | 0.00 | 15 | 1021.5 |
| 20260510174547 | 82 | 44 | 7.8 | 9.6 | 0.00 | 0.00 | 0.00 | 14 | 1021.6 |
| 20260510172547 | 79 | 6 | 2.6 | 9.6 | 0.00 | 0.00 | 0.00 | 15 | 1021.7 |
| 20260510172007 | 79 | 2 | 4.3 | 6.1 | 0.00 | 0.00 | 0.00 | 15 | 1021.6 |
| 20260510171547 | 78 | 37 | 4.3 | 5.2 | 0.00 | 0.00 | 0.00 | 15 | 1021.5 |
| 20260510171046 | 78 | 145 | 1.7 | 7.8 | 0.00 | 0.00 | 0.00 | 15 | 1021.5 |
| 20260510170507 | 78 | 77 | 3.5 | 6.1 | 0.00 | 0.00 | 0.00 | 15 | 1021.4 |
| 20260510170047 | 79 | 86 | 2.6 | 6.1 | 0.00 | 0.00 | 0.00 | 16 | 1021.4 |
| 20260510165547 | 78 | 17 | 4.3 | 8.7 | 0.00 | 0.00 | 0.00 | 16 | 1021.5 |
| 20260510165007 | 77 | 41 | 8.7 | 11.3 | 0.00 | 0.00 | 0.00 | 16 | 1021.4 |
| 20260510164546 | 77 | 29 | 4.3 | 8.7 | 0.00 | 0.00 | 0.00 | 16 | 1021.4 |
| 20260510164046 | 76 | 84 | 2.6 | 11.3 | 0.00 | 0.00 | 0.00 | 16 | 1021.3 |
| 20260510163546 | 77 | 12 | 3.5 | 7.8 | 0.00 | 0.00 | 0.00 | 16 | 1021.4 |
| 20260510161507 | 77 | 4 | 5.2 | 6.1 | 0.00 | 0.00 | 0.00 | 18 | 1021.3 |
| 20260510161008 | 76 | 103 | 3.5 | 8.7 | 0.00 | 0.00 | 0.00 | 19 | 1021.3 |
| 20260510160547 | 77 | 35 | 4.3 | 6.1 | 0.00 | 0.00 | 0.00 | 18 | 1021.3 |
| 20260510160047 | 76 | 7 | 1.7 | 7.0 | 0.00 | 0.00 | 0.00 | 18 | 1021.4 |
| 20260510155547 | 76 | 349 | 1.7 | 4.3 | 0.00 | 0.00 | 0.00 | 18 | 1021.4 |
| 20260510155046 | 75 | 319 | 4.3 | 4.3 | 0.00 | 0.00 | 0.00 | 18 | 1021.3 |
| 20260510154546 | 75 | 18 | 4.3 | 7.8 | 0.00 | 0.00 | 0.00 | 18 | 1021.1 |
| 20260510154007 | 75 | 28 | 5.2 | 7.0 | 0.00 | 0.00 | 0.00 | 18 | 1020.9 |
| 20260510153547 | 75 | 65 | 1.7 | 5.2 | 0.00 | 0.00 | 0.00 | 19 | 1021.0 |
| 20260510153047 | 74 | 33 | 4.3 | 6.1 | 0.00 | 0.00 | 0.00 | 19 | 1020.9 |
| 20260510152507 | 74 | 356 | 0.0 | 3.5 | 0.00 | 0.00 | 0.00 | 19 | 1021.1 |
| 20260510152007 | 75 | 37 | 1.7 | 5.2 | 0.00 | 0.00 | 0.00 | 19 | 1021.0 |
| 20260510151547 | 74 | 64 | 1.7 | 5.2 | 0.00 | 0.00 | 0.00 | 19 | 1021.0 |
| 20260510151008 | 75 | 46 | 3.5 | 4.3 | 0.00 | 0.00 | 0.00 | 18 | 1020.8 |
| 20260510150547 | 75 | 344 | 2.6 | 3.5 | 0.00 | 0.00 | 0.00 | 17 | 1020.9 |
| 20260510150046 | 73 | 113 | 1.7 | 3.5 | 0.00 | 0.00 | 0.00 | 18 | 1020.8 |
| 20260510145546 | 73 | 33 | 4.3 | 4.3 | 0.00 | 0.00 | 0.00 | 18 | 1020.7 |
| 20260510145047 | 74 | 35 | 0.0 | 4.3 | 0.00 | 0.00 | 0.00 | 18 | 1020.9 |
| 20260510144546 | 73 | 25 | 1.7 | 2.6 | 0.00 | 0.00 | 0.00 | 19 | 1020.8 |
| 20260510144046 | 73 | 123 | 0.0 | 2.6 | 0.00 | 0.00 | 0.00 | 18 | 1020.7 |
| 20260510143547 | 72 | 273 | 1.7 | 1.7 | 0.00 | 0.00 | 0.00 | 20 | 1020.7 |
| 20260510143006 | 70 | 303 | 1.7 | 2.6 | 0.00 | 0.00 | 0.00 | 21 | 1020.5 |
| 20260510142546 | 71 | 234 | 0.0 | 1.7 | 0.00 | 0.00 | 0.00 | 22 | 1020.5 |
| 20260510142046 | 70 | 185 | 0.0 | 1.7 | 0.00 | 0.00 | 0.00 | 23 | 1020.6 |
| 20260510141547 | 68 | 131 | 1.7 | 1.7 | 0.00 | 0.00 | 0.00 | 23 | 1020.6 |
| 20260510141047 | 67 | 275 | 0.0 | 1.7 | 0.00 | 0.00 | 0.00 | 27 | 1020.6 |
| 20260510140547 | 65 | 200 | 0.0 | 2.6 | 0.00 | 0.00 | 0.00 | 28 | 1020.5 |
| 20260510140006 | 63 | 279 | 0.0 | 2.6 | 0.00 | 0.00 | 0.00 | 30 | 1020.4 |
| 20260510135546 | 63 | 259 | 2.6 | 2.6 | 0.00 | 0.00 | 0.00 | 29 | 1020.4 |
| 20260510135046 | 62 | 264 | 2.6 | 2.6 | 0.00 | 0.00 | 0.00 | 30 | 1020.4 |
| 20260510125007 | 54 | 264 | 2.6 | 3.5 | 0.00 | 0.00 | 0.00 | 29 | 1020.0 |
| 20260510124546 | 53 | 280 | 2.6 | 2.6 | 0.00 | 0.00 | 0.00 | 29 | 1019.9 |
| 20260510124047 | 53 | 269 | 2.6 | 3.5 | 0.00 | 0.00 | 0.00 | 29 | 1019.8 |
| 20260510123546 | 54 | 267 | 2.6 | 4.3 | 0.00 | 0.00 | 0.00 | 29 | 1019.9 |
| 20260510123046 | 54 | 260 | 4.3 | 4.3 | 0.00 | 0.00 | 0.00 | 28 | 1019.9 |
| 20260510122546 | 54 | 263 | 4.3 | 4.3 | 0.00 | 0.00 | 0.00 | 29 | 1019.9 |
| 20260510122006 | 53 | 262 | 4.3 | 4.3 | 0.00 | 0.00 | 0.00 | 29 | 1019.8 |
| 20260510121546 | 54 | 256 | 2.6 | 4.3 | 0.00 | 0.00 | 0.00 | 29 | 1019.5 |
| 20260510121047 | 53 | 267 | 4.3 | 5.2 | 0.00 | 0.00 | 0.00 | 29 | 1019.5 |
| 20260510120507 | 53 | 250 | 3.5 | 4.3 | 0.00 | 0.00 | 0.00 | 29 | 1019.7 |
| 20260510120007 | 53 | 266 | 4.3 | 5.2 | 0.00 | 0.00 | 0.00 | 29 | 1019.7 |
| 20260510115547 | 53 | 273 | 3.5 | 4.3 | 0.00 | 0.00 | 0.00 | 29 | 1019.7 |
| 20260510113547 | 54 | 276 | 3.5 | 4.3 | 0.00 | 0.00 | 0.00 | 29 | 1019.5 |
| 20260510113007 | 54 | 263 | 2.6 | 3.5 | 0.00 | 0.00 | 0.00 | 28 | 1019.5 |
| 20260510112547 | 55 | 266 | 3.5 | 4.3 | 0.00 | 0.00 | 0.00 | 27 | 1019.5 |
| 20260510112046 | 54 | 282 | 3.5 | 4.3 | 0.00 | 0.00 | 0.00 | 28 | 1019.7 |
| 20260510111507 | 55 | 276 | 2.6 | 3.5 | 0.00 | 0.00 | 0.00 | 28 | 1019.6 |
| 20260510111007 | 56 | 306 | 1.7 | 3.5 | 0.00 | 0.00 | 0.00 | 27 | 1019.7 |
| 20260510110547 | 56 | 305 | 2.6 | 3.5 | 0.00 | 0.00 | 0.00 | 26 | 1019.7 |
| 20260510110047 | 57 | 273 | 2.6 | 3.5 | 0.00 | 0.00 | 0.00 | 26 | 1019.5 |
| 20260510105546 | 57 | 295 | 2.6 | 3.5 | 0.00 | 0.00 | 0.00 | 25 | 1019.5 |
| 20260510105046 | 58 | 278 | 2.6 | 2.6 | 0.00 | 0.00 | 0.00 | 25 | 1019.4 |
| 20260510104547 | 58 | 247 | 1.7 | 3.5 | 0.00 | 0.00 | 0.00 | 24 | 1019.6 |
| 20260510104007 | 61 | 229 | 0.0 | 3.5 | 0.00 | 0.00 | 0.00 | 23 | 1019.7 |
| 20260510103546 | 63 | 267 | 1.7 | 3.5 | 0.00 | 0.00 | 0.00 | 22 | 1019.6 |
| 20260510103047 | 63 | 292 | 3.5 | 3.5 | 0.00 | 0.00 | 0.00 | 21 | 1019.5 |
| 20260510102508 | 63 | 334 | 2.6 | 3.5 | 0.00 | 0.00 | 0.00 | 21 | 1019.4 |
| 20260510102008 | 62 | 8 | 2.6 | 4.3 | 0.00 | 0.00 | 0.00 | 22 | 1019.5 |
| 20260510101547 | 63 | 9 | 4.3 | 5.2 | 0.00 | 0.00 | 0.00 | 21 | 1019.4 |
| 20260510101008 | 64 | 266 | 3.5 | 7.0 | 0.00 | 0.00 | 0.00 | 20 | 1019.2 |
| 20260510100546 | 65 | 272 | 3.5 | 5.2 | 0.00 | 0.00 | 0.00 | 20 | 1019.0 |
| 20260510100046 | 65 | 271 | 4.3 | 7.0 | 0.00 | 0.00 | 0.00 | 20 | 1019.2 |
| 20260510095546 | 64 | 284 | 3.5 | 6.1 | 0.00 | 0.00 | 0.00 | 20 | 1019.0 |
| 20260510095007 | 64 | 267 | 6.1 | 8.7 | 0.00 | 0.00 | 0.00 | 20 | 1018.9 |
| 20260510094547 | 64 | 263 | 5.2 | 7.8 | 0.00 | 0.00 | 0.00 | 20 | 1019.0 |
| 20260510094047 | 64 | 249 | 6.1 | 7.8 | 0.00 | 0.00 | 0.00 | 20 | 1019.0 |
| 20260510093546 | 64 | 262 | 5.2 | 7.0 | 0.00 | 0.00 | 0.00 | 20 | 1018.9 |
| 20260510093007 | 65 | 264 | 6.1 | 6.1 | 0.00 | 0.00 | 0.00 | 20 | 1019.2 |
| 20260510092547 | 65 | 269 | 6.1 | 7.0 | 0.00 | 0.00 | 0.00 | 20 | 1019.0 |
| 20260510092047 | 65 | 260 | 4.3 | 6.1 | 0.00 | 0.00 | 0.00 | 20 | 1019.0 |
| 20260510091547 | 65 | 259 | 6.1 | 6.1 | 0.00 | 0.00 | 0.00 | 20 | 1018.9 |
| 20260510091047 | 64 | 256 | 5.2 | 6.1 | 0.00 | 0.00 | 0.00 | 20 | 1018.9 |
| 20260510090547 | 64 | 262 | 5.2 | 6.1 | 0.00 | 0.00 | 0.00 | 20 | 1018.7 |
| 20260510090007 | 64 | 254 | 6.1 | 8.7 | 0.00 | 0.00 | 0.00 | 20 | 1018.8 |
| 20260510085547 | 64 | 261 | 6.1 | 8.7 | 0.00 | 0.00 | 0.00 | 20 | 1018.9 |
| 20260510084007 | 64 | 249 | 7.8 | 7.8 | 0.00 | 0.00 | 0.00 | 20 | 1018.9 |
| 20260510083527 | 65 | 248 | 6.1 | 7.0 | 0.00 | 0.00 | 0.00 | 21 | 1018.9 |
| 20260510083047 | 65 | 258 | 5.2 | 7.8 | 0.00 | 0.00 | 0.00 | 20 | 1019.0 |
| 20260510082546 | 65 | 263 | 4.3 | 7.0 | 0.00 | 0.00 | 0.00 | 20 | 1018.9 |
| 20260510082047 | 66 | 265 | 6.1 | 7.0 | 0.00 | 0.00 | 0.00 | 20 | 1019.0 |
| 20260510081547 | 66 | 266 | 5.2 | 7.0 | 0.00 | 0.00 | 0.00 | 20 | 1018.9 |
| 20260510081007 | 65 | 264 | 5.2 | 7.8 | 0.00 | 0.00 | 0.00 | 20 | 1018.8 |
| 20260510080547 | 65 | 257 | 4.3 | 6.1 | 0.00 | 0.00 | 0.00 | 21 | 1018.9 |
| 20260510080047 | 64 | 249 | 5.2 | 7.0 | 0.00 | 0.00 | 0.00 | 21 | 1018.9 |
| 20260510074546 | 64 | 263 | 4.3 | 7.8 | 0.00 | 0.00 | 0.00 | 21 | 1019.2 |
| 20260510074047 | 64 | 274 | 4.3 | 7.8 | 0.00 | 0.00 | 0.00 | 21 | 1018.9 |
| 20260510073547 | 64 | 237 | 3.5 | 5.2 | 0.00 | 0.00 | 0.00 | 22 | 1019.0 |
| 20260510073047 | 64 | 247 | 5.2 | 6.1 | 0.00 | 0.00 | 0.00 | 21 | 1019.0 |
| 20260510072547 | 64 | 245 | 3.5 | 6.1 | 0.00 | 0.00 | 0.00 | 21 | 1018.9 |
| 20260510072007 | 64 | 225 | 1.7 | 6.1 | 0.00 | 0.00 | 0.00 | 21 | 1018.9 |
| 20260510071546 | 65 | 234 | 2.6 | 6.1 | 0.00 | 0.00 | 0.00 | 21 | 1018.7 |
| 20260510071046 | 65 | 267 | 5.2 | 7.0 | 0.00 | 0.00 | 0.00 | 20 | 1019.0 |
| 20260510065047 | 66 | 265 | 4.3 | 5.2 | 0.00 | 0.00 | 0.00 | 20 | 1019.0 |
| 20260510064546 | 66 | 265 | 3.5 | 4.3 | 0.00 | 0.00 | 0.00 | 20 | 1018.8 |
| 20260510064047 | 66 | 229 | 2.6 | 3.5 | 0.00 | 0.00 | 0.00 | 20 | 1018.8 |
| 20260510062047 | 67 | 267 | 4.3 | 4.3 | 0.00 | 0.00 | 0.00 | 20 | 1018.7 |
| 20260510061507 | 67 | 262 | 3.5 | 4.3 | 0.00 | 0.00 | 0.00 | 20 | 1018.7 |
| 20260510061007 | 68 | 226 | 3.5 | 6.1 | 0.00 | 0.00 | 0.00 | 20 | 1018.6 |
| 20260510060546 | 67 | 265 | 4.3 | 5.2 | 0.00 | 0.00 | 0.00 | 20 | 1018.6 |
| 20260510060047 | 68 | 266 | 4.3 | 6.1 | 0.00 | 0.00 | 0.00 | 20 | 1018.6 |
| 20260510055547 | 67 | 262 | 3.5 | 5.2 | 0.00 | 0.00 | 0.00 | 20 | 1018.6 |
| 20260510055047 | 67 | 249 | 2.6 | 4.3 | 0.00 | 0.00 | 0.00 | 20 | 1018.5 |
| 20260510054547 | 68 | 268 | 4.3 | 7.0 | 0.00 | 0.00 | 0.00 | 19 | 1018.5 |
| 20260510054008 | 68 | 260 | 5.2 | 7.8 | 0.00 | 0.00 | 0.00 | 19 | 1018.4 |
| 20260510053547 | 68 | 263 | 7.8 | 7.8 | 0.00 | 0.00 | 0.00 | 19 | 1018.6 |
| 20260510053047 | 68 | 265 | 5.2 | 7.8 | 0.00 | 0.00 | 0.00 | 19 | 1018.5 |
| 20260510052508 | 68 | 264 | 5.2 | 6.1 | 0.00 | 0.00 | 0.00 | 19 | 1018.6 |
| 20260510052008 | 68 | 265 | 5.2 | 6.1 | 0.00 | 0.00 | 0.00 | 20 | 1018.4 |
| 20260510051547 | 68 | 262 | 3.5 | 7.0 | 0.00 | 0.00 | 0.00 | 19 | 1018.6 |
| 20260510051008 | 68 | 267 | 5.2 | 7.8 | 0.00 | 0.00 | 0.00 | 20 | 1018.5 |
| 20260510050547 | 68 | 268 | 6.1 | 7.8 | 0.00 | 0.00 | 0.00 | 19 | 1018.6 |
| 20260510050047 | 68 | 265 | 5.2 | 6.1 | 0.00 | 0.00 | 0.00 | 19 | 1018.5 |
| 20260510045546 | 68 | 269 | 4.3 | 6.1 | 0.00 | 0.00 | 0.00 | 19 | 1018.6 |
| 20260510045027 | 68 | 253 | 3.5 | 6.1 | 0.00 | 0.00 | 0.00 | 19 | 1018.6 |
| 20260510044546 | 69 | 271 | 5.2 | 7.0 | 0.00 | 0.00 | 0.00 | 19 | 1018.6 |
| 20260510044046 | 69 | 250 | 3.5 | 5.2 | 0.00 | 0.00 | 0.00 | 19 | 1018.5 |
| 20260510043546 | 69 | 253 | 5.2 | 5.2 | 0.00 | 0.00 | 0.00 | 19 | 1018.6 |
| 20260510041546 | 69 | 260 | 3.5 | 7.8 | 0.00 | 0.00 | 0.00 | 19 | 1018.4 |
| 20260510041046 | 69 | 266 | 4.3 | 7.0 | 0.00 | 0.00 | 0.00 | 19 | 1018.5 |
| 20260510040546 | 69 | 261 | 4.3 | 4.3 | 0.00 | 0.00 | 0.00 | 19 | 1018.5 |
| 20260510040007 | 69 | 242 | 3.5 | 4.3 | 0.00 | 0.00 | 0.00 | 20 | 1018.0 |
| 20260510035547 | 69 | 237 | 2.6 | 3.5 | 0.00 | 0.00 | 0.00 | 19 | 1018.1 |
| 20260510035047 | 69 | 258 | 3.5 | 4.3 | 0.00 | 0.00 | 0.00 | 19 | 1018.2 |
| 20260510030047 | 71 | 257 | 4.3 | 6.1 | 0.00 | 0.00 | 0.00 | 20 | 1017.7 |
| 20260510025508 | 71 | 241 | 2.6 | 5.2 | 0.00 | 0.00 | 0.00 | 20 | 1017.6 |
| 20260510025047 | 71 | 279 | 4.3 | 5.2 | 0.00 | 0.00 | 0.00 | 20 | 1017.5 |
| 20260510024547 | 71 | 256 | 4.3 | 7.0 | 0.00 | 0.00 | 0.00 | 20 | 1017.7 |
| 20260510024047 | 71 | 254 | 2.6 | 4.3 | 0.00 | 0.00 | 0.00 | 20 | 1017.7 |
| 20260510023546 | 71 | 268 | 2.6 | 4.3 | 0.00 | 0.00 | 0.00 | 20 | 1017.6 |
| 20260510023046 | 72 | 240 | 4.3 | 4.3 | 0.00 | 0.00 | 0.00 | 20 | 1017.7 |
| 20260510022546 | 73 | 248 | 3.5 | 7.8 | 0.00 | 0.00 | 0.00 | 19 | 1017.5 |
| 20260510022008 | 73 | 240 | 3.5 | 6.1 | 0.00 | 0.00 | 0.00 | 19 | 1017.6 |
| 20260510021547 | 74 | 222 | 7.0 | 7.8 | 0.00 | 0.00 | 0.00 | 19 | 1017.6 |
| 20260510021047 | 74 | 225 | 2.6 | 7.0 | 0.00 | 0.00 | 0.00 | 19 | 1017.2 |
| 20260510020507 | 75 | 252 | 2.6 | 5.2 | 0.00 | 0.00 | 0.00 | 19 | 1017.3 |
| 20260510020046 | 76 | 220 | 5.2 | 9.6 | 0.00 | 0.00 | 0.00 | 18 | 1017.2 |
| 20260510015546 | 76 | 268 | 3.5 | 7.8 | 0.00 | 0.00 | 0.00 | 18 | 1017.4 |
| 20260510015007 | 77 | 220 | 4.3 | 11.3 | 0.00 | 0.00 | 0.00 | 18 | 1017.2 |
| 20260510014546 | 77 | 224 | 5.2 | 6.1 | 0.00 | 0.00 | 0.00 | 18 | 1017.3 |
| 20260510014046 | 77 | 205 | 6.1 | 8.7 | 0.00 | 0.00 | 0.00 | 18 | 1017.1 |
| 20260510013547 | 78 | 260 | 7.8 | 11.3 | 0.00 | 0.00 | 0.00 | 17 | 1017.0 |
| 20260510013007 | 78 | 249 | 7.0 | 10.4 | 0.00 | 0.00 | 0.00 | 17 | 1017.2 |
| 20260510012546 | 79 | 233 | 3.5 | 6.1 | 0.00 | 0.00 | 0.00 | 17 | 1017.2 |
| 20260510012046 | 79 | 211 | 7.8 | 7.8 | 0.00 | 0.00 | 0.00 | 17 | 1017.1 |
| 20260510011546 | 79 | 232 | 12.2 | 13.9 | 0.00 | 0.00 | 0.00 | 17 | 1017.1 |
| 20260510011007 | 78 | 258 | 13.0 | 17.4 | 0.00 | 0.00 | 0.00 | 17 | 1017.0 |
| 20260510010546 | 79 | 249 | 6.1 | 11.3 | 0.00 | 0.00 | 0.00 | 17 | 1017.0 |
| 20260510010047 | 79 | 222 | 7.8 | 10.4 | 0.00 | 0.00 | 0.00 | 17 | 1016.8 |
| 20260510005546 | 80 | 219 | 6.1 | 10.4 | 0.00 | 0.00 | 0.00 | 17 | 1016.8 |
| 20260510005046 | 80 | 216 | 11.3 | 13.0 | 0.00 | 0.00 | 0.00 | 17 | 1017.0 |
| 20260510004547 | 80 | 243 | 6.1 | 11.3 | 0.00 | 0.00 | 0.00 | 17 | 1017.1 |
| 20260510004008 | 80 | 265 | 8.7 | 16.5 | 0.00 | 0.00 | 0.00 | 17 | 1017.0 |
| 20260510003546 | 80 | 193 | 7.8 | 12.2 | 0.00 | 0.00 | 0.00 | 17 | 1017.2 |
| 20260510003047 | 80 | 271 | 6.1 | 10.4 | 0.00 | 0.00 | 0.00 | 17 | 1017.0 |
| 20260510002507 | 80 | 215 | 6.1 | 14.8 | 0.00 | 0.00 | 0.00 | 17 | 1017.1 |
| 20260510002007 | 80 | 254 | 11.3 | 13.0 | 0.00 | 0.00 | 0.00 | 17 | 1017.2 |
| 20260510001546 | 80 | 248 | 4.3 | 19.1 | 0.00 | 0.00 | 0.00 | 17 | 1017.1 |
| 20260510001007 | 80 | 238 | 8.7 | 15.6 | 0.00 | 0.00 | 0.00 | 17 | 1017.1 |
| 20260510000546 | 80 | 271 | 9.6 | 17.4 | 0.00 | 0.00 | 0.00 | 17 | 1017.2 |
| 20260510000046 | 80 | 216 | 14.8 | 17.4 | 0.00 | 0.00 | 0.00 | 17 | 1017.2 |
| 20260509235546 | 81 | 264 | 7.0 | 11.3 | 0.00 | 0.00 | 0.00 | 16 | 1017.1 |
| 20260509235046 | 81 | 219 | 6.1 | 13.9 | 0.00 | 0.00 | 0.00 | 17 | 1017.2 |
| 20260509233008 | 81 | 267 | 7.8 | 13.0 | 0.00 | 0.00 | 0.00 | 16 | 1017.2 |
| 20260509232546 | 82 | 219 | 6.1 | 10.4 | 0.00 | 0.00 | 0.00 | 15 | 1017.1 |
| 20260509232047 | 82 | 214 | 7.0 | 14.8 | 0.00 | 0.00 | 0.00 | 15 | 1017.3 |
| 20260509231547 | 80 | 241 | 4.3 | 7.0 | 0.00 | 0.00 | 0.00 | 16 | 1017.2 |
| 20260509231047 | 80 | 214 | 7.0 | 14.8 | 0.00 | 0.00 | 0.00 | 16 | 1017.4 |
| 20260509230547 | 81 | 227 | 4.3 | 14.8 | 0.00 | 0.00 | 0.00 | 16 | 1017.4 |
| 20260509230008 | 81 | 251 | 4.3 | 13.9 | 0.00 | 0.00 | 0.00 | 16 | 1017.5 |
| 20260509225546 | 81 | 267 | 7.0 | 17.4 | 0.00 | 0.00 | 0.00 | 16 | 1017.6 |
| 20260509225046 | 80 | 269 | 7.8 | 17.4 | 0.00 | 0.00 | 0.00 | 16 | 1017.6 |
| 20260509224508 | 81 | 218 | 11.3 | 15.6 | 0.00 | 0.00 | 0.00 | 16 | 1017.4 |
| 20260509224008 | 82 | 267 | 9.6 | 12.2 | 0.00 | 0.00 | 0.00 | 15 | 1017.3 |
| 20260509223546 | 82 | 227 | 7.0 | 13.0 | 0.00 | 0.00 | 0.00 | 15 | 1017.5 |
| 20260509223008 | 81 | 230 | 6.1 | 13.0 | 0.00 | 0.00 | 0.00 | 16 | 1017.6 |
| 20260509222546 | 80 | 260 | 5.2 | 17.4 | 0.00 | 0.00 | 0.00 | 16 | 1017.5 |
| 20260509222046 | 82 | 257 | 7.0 | 7.8 | 0.00 | 0.00 | 0.00 | 15 | 1017.7 |
| 20260509221546 | 81 | 225 | 7.0 | 14.8 | 0.00 | 0.00 | 0.00 | 16 | 1017.8 |
| 20260509221047 | 80 | 238 | 6.1 | 19.1 | 0.00 | 0.00 | 0.00 | 16 | 1017.9 |
| 20260509220546 | 80 | 204 | 17.4 | 19.1 | 0.00 | 0.00 | 0.00 | 15 | 1018.0 |
| 20260509220047 | 81 | 226 | 7.8 | 17.4 | 0.00 | 0.00 | 0.00 | 15 | 1017.9 |
| 20260509214047 | 81 | 269 | 8.7 | 13.9 | 0.00 | 0.00 | 0.00 | 15 | 1018.1 |
| 20260509213547 | 80 | 222 | 9.6 | 21.7 | 0.00 | 0.00 | 0.00 | 16 | 1018.2 |
| 20260509213047 | 82 | 261 | 15.6 | 19.1 | 0.00 | 0.00 | 0.00 | 15 | 1018.0 |
| 20260509212546 | 81 | 211 | 7.8 | 14.8 | 0.00 | 0.00 | 0.00 | 16 | 1018.2 |
| 20260509212007 | 82 | 202 | 7.8 | 15.6 | 0.00 | 0.00 | 0.00 | 16 | 1018.0 |
| 20260509211547 | 81 | 212 | 9.6 | 13.0 | 0.00 | 0.00 | 0.00 | 15 | 1018.2 |
| 20260509211047 | 80 | 320 | 7.0 | 17.4 | 0.00 | 0.00 | 0.00 | 15 | 1018.1 |
| 20260509210507 | 81 | 275 | 13.0 | 19.1 | 0.00 | 0.00 | 0.00 | 15 | 1018.2 |
| 20260509210007 | 80 | 235 | 8.7 | 12.2 | 0.00 | 0.00 | 0.00 | 16 | 1018.4 |
| 20260509205546 | 80 | 212 | 10.4 | 13.0 | 0.00 | 0.00 | 0.00 | 15 | 1018.3 |
| 20260509205008 | 80 | 275 | 13.0 | 14.8 | 0.00 | 0.00 | 0.00 | 16 | 1018.6 |
| 20260509204547 | 81 | 243 | 17.4 | 18.2 | 0.00 | 0.00 | 0.00 | 16 | 1018.5 |
| 20260509204047 | 80 | 193 | 4.3 | 13.0 | 0.00 | 0.00 | 0.00 | 16 | 1018.6 |
| 20260509203547 | 80 | 286 | 2.6 | 7.0 | 0.00 | 0.00 | 0.00 | 14 | 1018.7 |
| 20260509203007 | 80 | 275 | 5.2 | 13.9 | 0.00 | 0.00 | 0.00 | 15 | 1018.6 |
| 20260509202546 | 81 | 209 | 7.8 | 19.1 | 0.00 | 0.00 | 0.00 | 15 | 1018.6 |
| 20260509202047 | 82 | 302 | 6.1 | 13.9 | 0.00 | 0.00 | 0.00 | 15 | 1018.6 |
| 20260509201546 | 81 | 295 | 6.1 | 14.8 | 0.00 | 0.00 | 0.00 | 15 | 1018.6 |
| 20260509201007 | 79 | 268 | 7.0 | 16.5 | 0.00 | 0.00 | 0.00 | 14 | 1018.7 |
| 20260509200547 | 82 | 256 | 9.6 | 16.5 | 0.00 | 0.00 | 0.00 | 14 | 1018.8 |
| 20260509200046 | 80 | 156 | 5.2 | 17.4 | 0.00 | 0.00 | 0.00 | 15 | 1018.7 |
| 20260509195546 | 81 | 244 | 10.4 | 17.4 | 0.00 | 0.00 | 0.00 | 15 | 1018.8 |
| 20260509195047 | 82 | 252 | 12.2 | 20.9 | 0.00 | 0.00 | 0.00 | 14 | 1018.9 |
| 20260509193047 | 80 | 240 | 6.1 | 13.0 | 0.00 | 0.00 | 0.00 | 14 | 1018.9 |
| 20260509192508 | 79 | 261 | 5.2 | 17.4 | 0.00 | 0.00 | 0.00 | 16 | 1018.9 |
| 20260509190546 | 79 | 277 | 8.7 | 15.6 | 0.00 | 0.00 | 0.00 | 16 | 1019.0 |
| 20260509190046 | 80 | 246 | 8.7 | 10.4 | 0.00 | 0.00 | 0.00 | 15 | 1019.3 |
| 20260509185547 | 80 | 284 | 4.3 | 9.6 | 0.00 | 0.00 | 0.00 | 15 | 1019.0 |
| 20260509185007 | 82 | 269 | 6.1 | 10.4 | 0.00 | 0.00 | 0.00 | 15 | 1019.3 |
| 20260509184546 | 80 | 197 | 7.8 | 17.4 | 0.00 | 0.00 | 0.00 | 16 | 1019.2 |
| 20260509184047 | 80 | 211 | 12.2 | 13.0 | 0.00 | 0.00 | 0.00 | 15 | 1019.2 |
| 20260509182047 | 81 | 193 | 6.1 | 20.0 | 0.00 | 0.00 | 0.00 | 15 | 1019.4 |
| 20260509181547 | 80 | 300 | 13.0 | 21.7 | 0.00 | 0.00 | 0.00 | 15 | 1019.3 |
| 20260509181047 | 79 | 267 | 12.2 | 18.2 | 0.00 | 0.00 | 0.00 | 16 | 1019.4 |